Total_Precipitation_Accumulation
0.00 0.01 0.05 0.09 0.07 0.06 0.09 0.06 0.01 0.00 0.00 0.00 0.00 0.00 0.00 0.00 0.01 0.04 0.00 0.00 0.00 0.00 0.01 0.02 0.02 0.01 0.01 0.01 0.03 0.04 0.03 0.02 0.03 0.06 0.10 0.12 0.13 0.10 0.06 0.04 0.02 0.01 0.01 0.01 0.01 0.01 0.02 0.02 0.02
0.00 0.01 0.03 0.04 0.04 0.08 0.10 0.07 0.02 0.02 0.01 0.00 0.00 0.00 0.00 0.00 0.00 0.00 0.00 0.00 0.00 0.00 0.00 0.01 0.01 0.01 0.01 0.01 0.02 0.04 0.05 0.03 0.04 0.09 0.10 0.09 0.11 0.09 0.08 0.07 0.05 0.04 0.02 0.01 0.01 0.01 0.01 0.01 0.00
0.00 0.00 0.01 0.02 0.03 0.11 0.12 0.08 0.03 0.02 0.02 0.01 0.00 0.00 0.00 0.00 0.00 0.00 0.00 0.00 0.00 0.00 0.00 0.00 0.01 0.01 0.01 0.01 0.02 0.05 0.07 0.05 0.06 0.09 0.10 0.07 0.08 0.10 0.09 0.10 0.10 0.08 0.04 0.02 0.01 0.01 0.01 0.01 0.01
0.00 0.00 0.00 0.01 0.02 0.07 0.09 0.05 0.02 0.01 0.01 0.01 0.00 0.00 0.00 0.00 0.00 0.00 0.00 0.00 0.00 0.00 0.00 0.00 0.01 0.01 0.01 0.01 0.01 0.03 0.05 0.07 0.07 0.09 0.09 0.09 0.11 0.10 0.07 0.09 0.10 0.08 0.04 0.02 0.04 0.04 0.03 0.02 0.01
0.00 0.00 0.00 0.00 0.01 0.04 0.05 0.03 0.02 0.02 0.01 0.00 0.00 0.00 0.00 0.00 0.00 0.00 0.00 0.00 0.00 0.00 0.00 0.01 0.01 0.01 0.01 0.01 0.01 0.02 0.02 0.03 0.05 0.08 0.10 0.09 0.09 0.10 0.08 0.06 0.05 0.04 0.02 0.02 0.07 0.10 0.09 0.06 0.04
0.00 0.00 0.00 0.01 0.02 0.03 0.03 0.03 0.02 0.04 0.02 0.01 0.01 0.00 0.00 0.00 0.00 0.00 0.00 0.00 0.00 0.00 0.01 0.01 0.01 0.01 0.01 0.01 0.01 0.01 0.01 0.02 0.02 0.04 0.06 0.05 0.03 0.02 0.03 0.03 0.04 0.02 0.02 0.05 0.08 0.08 0.11 0.14 0.11
0.00 0.00 0.00 0.00 0.01 0.01 0.02 0.03 0.03 0.03 0.01 0.00 0.00 0.00 0.00 0.00 0.00 0.00 0.00 0.00 0.00 0.00 0.00 0.01 0.01 0.01 0.01 0.01 0.01 0.01 0.01 0.01 0.01 0.01 0.01 0.01 0.01 0.01 0.01 0.01 0.01 0.01 0.01 0.03 0.05 0.04 0.05 0.10 0.10
0.00 0.00 0.00 0.00 0.00 0.00 0.01 0.03 0.03 0.02 0.01 0.00 0.00 0.00 0.00 0.00 0.00 0.00 0.00 0.00 0.00 0.00 0.00 0.00 0.00 0.01 0.01 0.01 0.01 0.01 0.01 0.01 0.01 0.01 0.01 0.00 0.00 0.00 0.01 0.02 0.03 0.02 0.03 0.03 0.04 0.03 0.04 0.08 0.09
0.00 0.00 0.00 0.00 0.00 0.00 0.01 0.03 0.03 0.02 0.02 0.01 0.00 0.00 0.00 0.00 0.00 0.00 0.01 0.01 0.01 0.01 0.01 0.00 0.00 0.01 0.01 0.01 0.00 0.00 0.00 0.01 0.01 0.01 0.00 0.01 0.01 0.02 0.04 0.03 0.07 0.07 0.08 0.08 0.09 0.08 0.07 0.07 0.09
0.00 0.00 0.00 0.00 0.00 0.00 0.01 0.03 0.03 0.02 0.02 0.01 0.00 0.00 0.00 0.00 0.00 0.00 0.00 0.00 0.01 0.01 0.01 0.00 0.00 0.00 0.00 0.00 0.00 0.00 0.00 0.00 0.00 0.03 0.04 0.03 0.04 0.06 0.03 0.03 0.11 0.21 0.26 0.25 0.28 0.27 0.19 0.19 0.23
0.00 0.00 0.00 0.00 0.00 0.00 0.00 0.01 0.02 0.02 0.01 0.01 0.01 0.01 0.00 0.00 0.00 0.00 0.00 0.00 0.00 0.00 0.00 0.00 0.00 0.00 0.00 0.00 0.00 0.00 0.00 0.02 0.01 0.02 0.04 0.06 0.06 0.03 0.02 0.04 0.09 0.15 0.20 0.33 0.49 0.49 0.34 0.42 0.43
0.00 0.00 0.00 0.00 0.00 0.00 0.00 0.00 0.01 0.02 0.01 0.01 0.01 0.01 0.00 0.00 0.00 0.00 0.00 0.00 0.00 0.00 0.00 0.00 0.00 0.01 0.01 0.01 0.01 0.00 0.00 0.01 0.01 0.01 0.01 0.02 0.04 0.05 0.06 0.13 0.14 0.19 0.20 0.31 0.36 0.41 0.25 0.17 0.15
0.00 0.00 0.00 0.00 0.00 0.00 0.00 0.00 0.00 0.01 0.02 0.01 0.01 0.01 0.01 0.00 0.00 0.00 0.00 0.00 0.00 0.00 0.00 0.01 0.01 0.02 0.02 0.02 0.02 0.01 0.01 0.00 0.00 0.01 0.01 0.02 0.03 0.06 0.11 0.15 0.18 0.11 0.14 0.22 0.27 0.19 0.21 0.18 0.12
0.00 0.00 0.00 0.00 0.00 0.00 0.00 0.00 0.00 0.00 0.01 0.01 0.01 0.02 0.01 0.01 0.01 0.01 0.00 0.00 0.01 0.01 0.01 0.02 0.03 0.04 0.06 0.06 0.05 0.05 0.04 0.03 0.03 0.02 0.03 0.02 0.03 0.09 0.16 0.19 0.24 0.18 0.18 0.26 0.33 0.26 0.37 0.27 0.21
0.00 0.00 0.00 0.00 0.00 0.00 0.00 0.00 0.00 0.00 0.00 0.01 0.01 0.01 0.02 0.02 0.01 0.02 0.02 0.01 0.02 0.02 0.02 0.04 0.06 0.08 0.11 0.12 0.14 0.18 0.19 0.17 0.11 0.08 0.08 0.09 0.11 0.21 0.25 0.26 0.28 0.32 0.31 0.40 0.44 0.43 0.42 0.34 0.28
0.00 0.00 0.00 0.00 0.00 0.00 0.00 0.00 0.00 0.00 0.00 0.00 0.01 0.01 0.02 0.02 0.03 0.04 0.05 0.04 0.05 0.05 0.05 0.09 0.10 0.14 0.21 0.30 0.41 0.46 0.40 0.28 0.19 0.17 0.16 0.20 0.27 0.38 0.49 0.41 0.39 0.56 0.56 0.62 0.73 0.68 0.61 0.59 0.47
0.00 0.00 0.00 0.00 0.00 0.00 0.00 0.00 0.00 0.00 0.00 0.00 0.01 0.03 0.05 0.06 0.08 0.08 0.09 0.12 0.13 0.14 0.14 0.16 0.19 0.25 0.38 0.55 0.72 0.66 0.53 0.42 0.33 0.31 0.31 0.38 0.50 0.65 0.86 0.70 0.71 0.81 0.82 0.82 0.67 0.83 0.96 0.88 0.75
0.00 0.00 0.00 0.00 0.00 0.00 0.00 0.00 0.00 0.00 0.01 0.01 0.03 0.07 0.11 0.16 0.26 0.26 0.22 0.25 0.28 0.27 0.29 0.32 0.38 0.52 0.81 1.11 1.09 0.91 0.77 0.65 0.59 0.54 0.58 0.69 0.89 1.02 1.18 0.96 0.95 1.00 1.07 1.06 1.06 1.16 1.08 0.91 0.85
0.00 0.00 0.00 0.00 0.00 0.00 0.00 0.00 0.01 0.01 0.02 0.03 0.05 0.14 0.24 0.29 0.42 0.53 0.53 0.48 0.47 0.47 0.52 0.64 0.88 1.15 1.52 1.51 1.31 1.29 1.20 1.13 1.05 0.96 0.94 0.98 1.02 1.16 1.34 1.15 1.23 1.23 1.17 1.19 1.24 1.32 1.27 1.08 1.12
0.00 0.00 0.00 0.00 0.00 0.00 0.00 0.00 0.01 0.03 0.05 0.07 0.08 0.09 0.21 0.38 0.53 0.68 0.70 0.64 0.67 0.89 1.11 1.26 1.45 1.84 2.01 1.89 1.84 1.82 1.82 1.62 1.59 1.52 1.38 1.20 1.13 1.23 1.29 1.40 1.28 1.30 1.30 1.28 1.38 1.44 1.24 1.03 1.27
0.00 0.00 0.00 0.00 0.00 0.00 0.00 0.00 0.02 0.06 0.11 0.15 0.18 0.21 0.25 0.31 0.37 0.45 0.50 0.55 0.65 0.85 1.04 1.31 1.67 2.02 2.19 2.23 2.28 2.21 2.20 1.95 1.86 1.76 1.62 1.44 1.31 1.26 1.33 1.38 1.35 1.30 1.32 1.25 1.41 1.43 1.34 1.20 1.29
0.00 0.00 0.00 0.00 0.00 0.00 0.00 0.00 0.01 0.03 0.07 0.13 0.19 0.25 0.31 0.39 0.42 0.45 0.47 0.51 0.59 0.66 0.88 1.21 1.54 1.83 2.03 2.18 2.23 2.27 2.26 2.14 2.11 1.99 1.71 1.45 1.31 1.33 1.38 1.37 1.35 1.32 1.30 1.22 1.20 1.25 1.48 1.44 1.27
0.00 0.00 0.00 0.00 0.00 0.00 0.00 0.00 0.00 0.02 0.05 0.09 0.16 0.23 0.32 0.40 0.46 0.52 0.60 0.69 0.75 0.84 1.02 1.22 1.41 1.64 1.80 1.88 1.93 1.98 1.92 1.88 1.84 1.70 1.48 1.32 1.27 1.25 1.20 1.21 1.36 1.40 1.32 1.24 1.20 1.24 1.35 1.34 1.28
0.00 0.00 0.00 0.00 0.00 0.00 0.01 0.01 0.01 0.02 0.04 0.08 0.17 0.25 0.34 0.44 0.54 0.65 0.71 0.79 0.85 0.99 1.15 1.31 1.41 1.59 1.71 1.62 1.50 1.50 1.51 1.54 1.47 1.38 1.27 1.16 1.10 1.06 1.02 1.09 1.22 1.26 1.23 1.17 1.09 1.10 1.19 1.21 1.21
0.00 0.02 0.05 0.03 0.01 0.01 0.01 0.02 0.03 0.05 0.05 0.10 0.21 0.26 0.31 0.38 0.45 0.54 0.68 0.88 0.96 0.97 1.00 1.19 1.44 1.68 1.68 1.50 1.32 1.25 1.24 1.29 1.29 1.24 1.19 1.13 1.05 0.99 0.96 0.98 0.98 1.01 1.01 1.04 1.05 1.04 1.10 1.18 1.18
0.04 0.06 0.16 0.13 0.04 0.02 0.01 0.02 0.09 0.09 0.14 0.18 0.23 0.26 0.26 0.25 0.22 0.22 0.25 0.34 0.39 0.41 0.41 0.49 0.62 0.79 0.85 0.83 0.80 0.80 0.85 0.94 1.00 1.05 1.06 1.08 1.04 0.96 0.89 0.82 0.80 0.84 0.85 0.88 0.98 1.07 1.11 1.17 1.21
0.14 0.15 0.12 0.24 0.21 0.17 0.04 0.03 0.11 0.14 0.20 0.25 0.27 0.24 0.21 0.18 0.16 0.16 0.18 0.20 0.23 0.26 0.33 0.42 0.49 0.54 0.55 0.52 0.48 0.49 0.53 0.63 0.72 0.80 0.87 0.93 0.93 0.89 0.85 0.82 0.81 0.78 0.79 0.84 0.92 1.02 1.05 1.10 1.14
0.10 0.15 0.29 0.45 0.43 0.29 0.12 0.10 0.23 0.33 0.34 0.37 0.38 0.34 0.27 0.21 0.20 0.21 0.23 0.26 0.33 0.43 0.53 0.59 0.58 0.53 0.47 0.44 0.43 0.40 0.43 0.46 0.51 0.56 0.59 0.62 0.66 0.69 0.70 0.70 0.70 0.69 0.70 0.72 0.79 0.88 0.96 1.01 1.02
0.10 0.16 0.30 0.43 0.45 0.42 0.33 0.27 0.23 0.31 0.44 0.58 0.59 0.49 0.35 0.28 0.25 0.25 0.24 0.28 0.33 0.42 0.49 0.56 0.57 0.54 0.51 0.48 0.47 0.45 0.43 0.42 0.42 0.44 0.45 0.49 0.51 0.52 0.54 0.56 0.58 0.61 0.64 0.67 0.69 0.74 0.81 0.84 0.87
0.07 0.15 0.28 0.44 0.48 0.49 0.45 0.34 0.16 0.19 0.30 0.41 0.43 0.36 0.27 0.24 0.23 0.23 0.22 0.23 0.27 0.33 0.40 0.44 0.46 0.51 0.51 0.46 0.46 0.46 0.43 0.39 0.38 0.38 0.37 0.39 0.42 0.44 0.45 0.47 0.48 0.53 0.58 0.63 0.70 0.77 0.82 0.83 0.82